CW7500 Weather Reports


time (UTC)temp
C
wind
direction
speed
KPH
gust
KPH
rain 1hr
cm
rain 24hr
cm
rain mn
cm
humidity
%
barometer
mb
20260503025510 8 247 1.6 8.0 0.00 0.15 0.15 100 1009.0
20260503025009 8 247 1.6 3.2 0.00 0.15 0.15 100 1008.9
20260503024509 8 262 1.6 1.6 0.00 0.15 0.15 100 1008.9
20260503024010 8 255 0.0 1.6 0.00 0.15 0.15 100 1008.7
20260503023509 8 277 0.0 1.6 0.00 0.15 0.15 100 1008.6
20260503023010 8 286 0.0 0.0 0.00 0.15 0.15 100 1008.8
20260503022510 8 336 0.0 1.6 0.00 0.15 0.15 100 1008.8
20260503021509 8 343 0.0 1.6 0.00 0.15 0.15 100 1008.9
20260503021010 8 272 0.0 0.0 0.00 0.15 0.15 100 1009.0
20260503020510 8 316 0.0 1.6 0.00 0.15 0.15 100 1009.1
20260503020009 8 74 0.0 4.8 0.00 0.15 0.15 100 1009.1
20260503015509 8 15 0.0 3.2 0.00 0.15 0.15 100 1009.2
20260503015010 8 28 1.6 8.0 0.00 0.15 0.15 100 1009.2
20260503014509 8 40 1.6 4.8 0.00 0.15 0.15 100 1009.2
20260503014009 8 85 0.0 1.6 0.00 0.15 0.15 100 1009.2
20260503013510 8 265 0.0 1.6 0.00 0.15 0.15 100 1009.2
20260503013009 8 238 0.0 0.0 0.00 0.15 0.15 100 1009.1
20260503012510 8 223 1.6 1.6 0.00 0.15 0.15 100 1009.1
20260503011509 8 241 1.6 1.6 0.00 0.15 0.15 100 1008.9
20260503011010 8 236 0.0 1.6 0.00 0.15 0.15 100 1008.9
20260503010509 8 249 0.0 1.6 0.00 0.15 0.15 100 1008.9
20260503005509 8 238 0.0 0.0 0.00 0.15 0.15 100 1008.6
20260503005009 8 238 0.0 0.0 0.00 0.15 0.15 100 1008.6
20260503004510 8 144 0.0 0.0 0.00 0.15 0.15 100 1008.6
20260503003509 8 147 0.0 0.0 0.00 0.15 0.15 100 1008.7
20260503003010 8 147 0.0 0.0 0.00 0.15 0.15 100 1008.6
20260503002510 8 264 0.0 0.0 0.00 0.15 0.15 100 1008.6
20260503002009 8 271 0.0 1.6 0.00 0.15 0.15 100 1008.6
20260503001510 8 253 0.0 1.6 0.00 0.15 0.15 100 1008.6
20260503000509 8 206 0.0 0.0 0.00 0.15 0.15 100 1008.6
20260503000010 8 218 0.0 1.6 0.00 0.15 0.15 100 1008.7
20260502235509 8 139 0.0 1.6 0.00 0.15 0.15 100 1008.5
20260502235009 8 181 1.6 1.6 0.00 0.15 0.15 100 1008.6
20260502234509 8 139 0.0 0.0 0.00 0.15 0.15 99 1008.6
20260502234009 8 135 0.0 1.6 0.00 0.15 0.15 99 1008.6
20260502233509 8 154 0.0 1.6 0.00 0.15 0.15 99 1008.5
20260502233010 8 168 0.0 0.0 0.00 0.15 0.15 99 1008.5
20260502232509 8 218 0.0 0.0 0.00 0.15 0.15 99 1008.5
20260502232009 8 173 0.0 1.6 0.00 0.15 0.15 99 1008.5
20260502231509 8 221 0.0 0.0 0.00 0.15 0.15 99 1008.5
20260502231009 8 230 0.0 1.6 0.00 0.15 0.15 99 1008.5
20260502225509 8 203 0.0 0.0 0.05 0.15 0.15 98 1008.4
20260502225010 8 216 0.0 3.2 0.05 0.15 0.15 98 1008.5
20260502224509 8 229 0.0 1.6 0.05 0.15 0.15 98 1008.4
20260502224009 8 216 0.0 0.0 0.05 0.15 0.15 98 1008.3
20260502223509 8 191 0.0 1.6 0.05 0.15 0.15 98 1008.3
20260502222509 8 173 0.0 0.0 0.05 0.15 0.15 96 1008.2
20260502222009 8 131 0.0 1.6 0.05 0.15 0.15 96 1008.4
20260502221509 8 208 0.0 1.6 0.05 0.15 0.15 95 1008.5
20260502221009 8 117 0.0 0.0 0.05 0.15 0.15 95 1008.5
20260502220509 8 172 0.0 0.0 0.00 0.10 0.10 94 1008.6
20260502220009 8 205 0.0 1.6 0.00 0.10 0.10 93 1008.6
20260502215509 8 230 1.6 1.6 0.00 0.10 0.10 93 1008.6
20260502214509 8 217 0.0 1.6 0.00 0.10 0.10 93 1008.6
20260502214008 8 198 0.0 1.6 0.00 0.10 0.10 93 1008.7
20260502213008 9 255 1.6 3.2 0.00 0.10 0.10 92 1008.6
20260502212509 9 225 1.6 3.2 0.00 0.10 0.10 90 1008.6
20260502212009 10 248 3.2 8.0 0.00 0.10 0.10 84 1008.6
20260502211509 10 280 3.2 8.0 0.00 0.10 0.10 82 1008.6
20260502211009 10 287 3.2 9.7 0.00 0.10 0.10 81 1008.6
20260502205509 11 241 4.8 9.7 0.00 0.10 0.10 69 1008.5
20260502205008 12 188 3.2 8.0 0.00 0.10 0.10 65 1008.4
20260502204509 12 267 1.6 9.7 0.00 0.10 0.10 66 1008.1
20260502203509 12 233 3.2 8.0 0.00 0.10 0.10 61 1008.2
20260502203009 13 154 3.2 9.7 0.00 0.10 0.10 58 1008.2
20260502202509 13 168 3.2 9.7 0.00 0.10 0.10 59 1008.2
20260502202009 12 202 3.2 8.0 0.00 0.10 0.10 62 1008.2
20260502201509 12 164 4.8 9.7 0.00 0.10 0.10 63 1008.4
20260502200508 13 200 3.2 12.9 0.00 0.10 0.10 60 1008.4
20260502195509 13 103 3.2 8.0 0.00 0.10 0.10 58 1008.3
20260502195009 13 236 3.2 9.7 0.00 0.10 0.10 63 1008.5
20260502194508 12 244 4.8 11.3 0.00 0.10 0.10 55 1008.5
20260502194009 12 188 4.8 14.5 0.00 0.10 0.10 48 1008.7
20260502193509 12 241 4.8 9.7 0.00 0.10 0.10 54 1008.6
20260502193008 13 279 4.8 14.5 0.00 0.10 0.10 49 1008.7
20260502192509 13 216 6.4 14.5 0.00 0.10 0.10 46 1008.9
20260502192008 13 237 4.8 9.7 0.00 0.10 0.10 47 1008.9
20260502191508 13 119 4.8 11.3 0.00 0.10 0.10 59 1009.0
20260502190008 12 186 3.2 9.7 0.00 0.10 0.10 60 1009.0
20260502185008 11 246 6.4 14.5 0.00 0.10 0.10 67 1009.1
20260502184508 11 234 4.8 11.3 0.00 0.10 0.10 67 1009.1
20260502184009 12 207 4.8 14.5 0.00 0.10 0.10 67 1009.1
20260502183509 12 187 4.8 11.3 0.00 0.10 0.10 76 1009.1
20260502183008 12 257 4.8 8.0 0.00 0.10 0.10 73 1009.2
20260502182508 11 159 3.2 12.9 0.00 0.10 0.10 79 1009.2
20260502182008 11 205 3.2 11.3 0.00 0.10 0.10 77 1009.1
20260502181509 11 114 3.2 8.0 0.00 0.10 0.10 76 1009.1
20260502181008 11 168 4.8 8.0 0.00 0.10 0.10 80 1009.1
20260502180509 11 240 3.2 11.3 0.00 0.10 0.10 76 1009.1
20260502170508 11 234 1.6 3.2 0.00 0.10 0.10 68 1009.6
20260502164009 11 210 1.6 8.0 0.00 0.10 0.10 57 1009.7
20260502163008 12 156 4.8 11.3 0.00 0.10 0.10 60 1009.7
20260502162508 12 334 4.8 9.7 0.00 0.10 0.10 64 1009.7
20260502162008 12 188 3.2 9.7 0.00 0.10 0.10 64 1009.7
20260502161508 12 199 3.2 8.0 0.00 0.10 0.10 64 1009.7
20260502161008 12 72 1.6 8.0 0.00 0.10 0.10 70 1009.5
20260502152008 11 120 1.6 3.2 0.00 0.10 0.10 84 1010.3
20260502151508 11 253 1.6 3.2 0.00 0.10 0.10 83 1010.2
20260502151008 11 89 0.0 3.2 0.00 0.10 0.10 84 1010.5
20260502150508 11 171 3.2 9.7 0.00 0.10 0.10 84 1010.7
20260502130507 8 251 0.0 1.6 0.00 0.05 0.05 98 1011.5
20260502123508 8 241 1.6 3.2 0.00 0.05 0.05 87 1011.4
20260502123008 8 273 1.6 4.8 0.00 0.05 0.05 86 1011.2
20260502122507 8 250 1.6 3.2 0.00 0.05 0.05 87 1011.4
20260502121507 8 228 3.2 8.0 0.00 0.05 0.05 86 1011.0
20260502121007 8 244 3.2 3.2 0.00 0.05 0.05 90 1010.8
20260502120508 8 267 1.6 3.2 0.00 0.05 0.05 89 1010.6
20260502115008 8 350 1.6 1.6 0.05 0.05 0.05 87 1010.3
20260502114008 8 273 1.6 3.2 0.05 0.05 0.05 91 1010.2
20260502113508 8 243 1.6 3.2 0.05 0.05 0.05 89 1010.2
20260502113007 7 279 3.2 4.8 0.05 0.05 0.05 90 1010.2
20260502112507 7 290 1.6 3.2 0.05 0.05 0.05 92 1010.5
20260502112008 7 248 1.6 3.2 0.05 0.05 0.05 91 1010.3
20260502111507 7 182 1.6 3.2 0.05 0.05 0.05 93 1010.4
20260502111007 7 213 1.6 3.2 0.05 0.05 0.05 93 1010.5
20260502110508 7 266 1.6 3.2 0.05 0.05 0.05 93 1010.2
20260502110007 7 260 0.0 1.6 0.05 0.05 0.05 95 1010.3
20260502105007 7 135 0.0 3.2 0.00 0.00 0.00 90 1010.0
20260502104507 8 205 0.0 3.2 0.00 0.00 0.00 89 1010.2
20260502104007 7 211 1.6 3.2 0.00 0.00 0.00 88 1010.2
20260502103007 7 234 0.0 1.6 0.00 0.00 0.00 85 1010.1
20260502102007 7 227 1.6 3.2 0.00 0.00 0.00 87 1009.8
20260502101508 7 168 0.0 3.2 0.00 0.00 0.00 88 1009.8
20260502101007 7 208 1.6 3.2 0.00 0.00 0.00 86 1009.9
20260502100508 7 233 1.6 3.2 0.00 0.00 0.00 85 1009.7
20260502091507 7 141 0.0 1.6 0.00 0.00 0.00 86 1009.5
20260502091007 7 86 0.0 0.0 0.00 0.00 0.00 84 1009.5
20260502090507 7 71 0.0 0.0 0.00 0.00 0.00 84 1009.4
20260502071006 8 183 1.6 1.6 0.00 0.00 0.00 73 1009.7
20260502070507 8 193 1.6 3.2 0.00 0.00 0.00 76 1009.8
20260502070007 8 209 3.2 4.8 0.00 0.00 0.00 75 1009.9
20260502065007 8 274 1.6 4.8 0.00 0.00 0.00 72 1009.7
20260502064506 8 238 0.0 3.2 0.00 0.00 0.00 71 1009.9
20260502064007 8 40 1.6 4.8 0.00 0.05 0.00 69 1010.0
20260502063506 8 250 1.6 3.2 0.00 0.05 0.00 69 1010.2
20260502063007 8 206 1.6 1.6 0.00 0.05 0.00 70 1010.2
20260502062507 8 192 0.0 3.2 0.00 0.05 0.00 69 1010.0
20260502062006 8 203 0.0 1.6 0.00 0.05 0.00 68 1009.8
20260502061506 8 181 0.0 3.2 0.00 0.05 0.00 67 1009.7
20260502061006 8 144 1.6 4.8 0.00 0.05 0.00 67 1009.7
20260502060506 8 231 0.0 0.0 0.00 0.05 0.00 65 1009.7
20260502060007 8 151 0.0 1.6 0.00 0.05 0.00 66 1009.8
20260502055506 8 181 0.0 3.2 0.00 0.05 0.00 65 1009.8
20260502055007 8 180 1.6 3.2 0.00 0.05 0.00 64 1009.8
20260502054506 8 205 1.6 1.6 0.00 0.05 0.00 65 1009.8
20260502053506 8 219 1.6 3.2 0.00 0.05 0.00 65 1009.8
20260502053007 8 233 1.6 3.2 0.00 0.05 0.00 65 1009.9
20260502052506 8 246 1.6 1.6 0.00 0.05 0.00 63 1009.8
20260502052006 8 231 1.6 3.2 0.00 0.05 0.00 63 1009.8
20260502051506 8 203 1.6 3.2 0.00 0.05 0.00 62 1009.8
20260502051006 8 242 1.6 3.2 0.00 0.05 0.00 61 1009.8
20260502050507 8 227 1.6 3.2 0.00 0.05 0.00 63 1009.9
20260502045506 8 223 1.6 1.6 0.00 0.05 0.00 61 1009.8
20260502045006 8 206 1.6 1.6 0.00 0.05 0.00 62 1009.9
20260502044507 8 232 1.6 1.6 0.00 0.05 0.00 60 1010.0
20260502044006 8 213 0.0 1.6 0.00 0.05 0.00 61 1009.8
20260502043507 8 222 1.6 1.6 0.00 0.05 0.00 62 1010.1
20260502043006 8 233 1.6 1.6 0.00 0.05 0.00 60 1010.1
20260502042506 8 252 1.6 1.6 0.00 0.05 0.00 58 1010.3
20260502042007 8 241 1.6 3.2 0.00 0.05 0.00 57 1010.2
20260502041506 8 237 1.6 3.2 0.00 0.05 0.00 57 1010.2
20260502041006 8 249 1.6 3.2 0.00 0.05 0.00 56 1010.1
20260502035507 9 237 1.6 3.2 0.00 0.05 0.05 54 1010.0
20260502035006 9 240 1.6 3.2 0.00 0.05 0.05 53 1010.1
20260502034507 9 250 1.6 3.2 0.00 0.05 0.05 53 1010.1
20260502034006 9 252 1.6 3.2 0.00 0.05 0.05 53 1010.1
20260502033506 8 252 1.6 3.2 0.00 0.05 0.05 55 1010.2
20260502032506 8 243 1.6 4.8 0.00 0.05 0.05 53 1010.3
20260502031506 9 240 1.6 4.8 0.00 0.05 0.05 51 1010.2
20260502031006 9 238 1.6 3.2 0.00 0.05 0.05 51 1010.2
20260502030506 9 228 1.6 1.6 0.00 0.05 0.05 50 1010.0
20260502030006 10 225 0.0 1.6 0.00 0.05 0.05 48 1009.8